CW8809 Weather Reports


Display with metric or nautical units.
time (UTC)temp
F
wind
direction
speed
MPH
gust
MPH
rain 1hr
in
rain 24hr
in
rain mn
in
humidity
%
barometer
mb
20260504045819 55 270 0.0 0.0 0.00 0.51 0.38 84 1015.7
20260504044817 56 292 0.0 0.0 0.00 0.51 0.38 84 1015.7
20260504043815 55 292 0.0 0.0 0.00 0.51 0.38 84 1015.7
20260504042814 56 337 0.0 0.0 0.00 0.51 0.38 84 1016.1
20260504041811 56 0 0.0 0.0 0.00 0.51 0.38 81 1015.7
20260504040810 56 270 0.0 0.0 0.00 0.51 0.38 80 1015.8
20260504035809 56 270 0.0 0.0 0.00 0.51 0.38 79 1015.7
20260504034807 56 292 0.0 0.0 0.00 0.51 0.38 79 1015.8
20260504033805 56 270 0.0 0.0 0.00 0.51 0.38 81 1015.8
20260504032803 57 157 0.0 6.0 0.00 0.51 0.38 82 1015.8
20260504031729 58 292 6.0 6.0 0.00 0.51 0.38 82 1015.9
20260504030727 58 292 0.0 0.0 0.00 0.51 0.38 82 1016.0
20260504025725 58 315 0.0 0.0 0.02 0.51 0.38 83 1016.0
20260504024723 58 135 0.0 0.0 0.02 0.51 0.38 82 1016.0
20260504023649 58 270 0.0 0.0 0.02 0.51 0.38 81 1016.3
20260504022647 58 315 0.0 0.0 0.02 0.51 0.38 79 1016.3
20260504021645 58 270 0.0 0.0 0.02 0.51 0.38 78 1016.7
20260504020643 58 225 0.0 3.0 0.02 0.51 0.38 76 1017.0
20260504015641 58 292 3.0 3.0 0.02 0.51 0.38 73 1017.0
20260504014639 58 337 0.0 0.0 0.02 0.51 0.38 73 1017.3
20260504013637 58 270 0.0 1.0 0.02 0.49 0.36 72 1017.3
20260504012634 58 225 0.0 0.0 0.02 0.49 0.36 72 1017.9
20260504011633 58 247 0.0 2.0 0.02 0.49 0.36 73 1017.9
20260504010632 58 292 2.0 2.0 0.02 0.49 0.36 75 1018.0
20260504005557 58 270 0.0 0.0 0.02 0.49 0.36 74 1018.0
20260504004555 58 270 0.0 0.0 0.02 0.49 0.36 72 1017.9
20260504003521 58 315 0.0 0.0 0.02 0.49 0.36 73 1018.3
20260504002519 58 315 0.0 0.0 0.02 0.47 0.34 73 1018.3
20260504001517 58 337 0.0 0.0 0.02 0.47 0.34 73 1017.9
20260504000443 58 337 0.0 0.0 0.02 0.47 0.34 69 1018.2
20260503235440 58 337 0.0 0.0 0.06 0.47 0.34 68 1017.9
20260503234406 58 292 0.0 0.0 0.06 0.47 0.34 69 1017.9
20260503233302 58 292 2.0 2.0 0.06 0.47 0.34 69 1017.9
20260503232300 58 0 0.0 0.0 0.06 0.45 0.32 69 1017.9
20260503231257 58 0 0.0 0.0 0.06 0.45 0.32 70 1017.6
20260503230255 58 315 0.0 0.0 0.10 0.45 0.32 66 1017.6
20260503225253 58 315 0.0 0.0 0.10 0.45 0.32 64 1017.6
20260503224251 58 292 0.0 0.0 0.10 0.43 0.30 64 1017.6
20260503223249 58 337 0.0 0.0 0.10 0.43 0.30 64 1017.5
20260503222247 58 292 0.0 1.0 0.08 0.41 0.28 65 1017.5
20260503221244 57 292 1.0 1.0 0.06 0.39 0.26 64 1017.9
20260503220243 57 315 0.0 0.0 0.06 0.39 0.26 65 1017.9
20260503215209 57 337 0.0 0.0 0.02 0.35 0.22 66 1017.9
20260503214206 58 292 0.0 0.0 0.00 0.33 0.20 66 1017.9
20260503213205 57 337 0.0 0.0 0.00 0.33 0.20 66 1017.9
20260503212202 57 337 0.0 0.0 0.00 0.33 0.20 65 1017.9
20260503211200 57 292 0.0 0.0 0.00 0.33 0.20 64 1017.9
20260503210158 57 0 0.0 0.0 0.00 0.33 0.20 64 1017.9
20260503205156 57 315 0.0 0.0 0.00 0.33 0.20 63 1017.6
20260503204153 57 315 0.0 0.0 0.00 0.33 0.20 63 1017.3
20260503203151 57 315 0.0 0.0 0.00 0.33 0.20 63 1017.3
20260503202149 57 315 0.0 0.0 0.00 0.33 0.20 62 1016.9
20260503201147 57 315 0.0 0.0 0.00 0.33 0.20 61 1017.3
20260503200114 57 315 0.0 0.0 0.06 0.33 0.20 61 1017.3
20260503195112 57 270 0.0 0.0 0.06 0.33 0.20 61 1017.3
20260503194110 57 292 0.0 0.0 0.06 0.33 0.20 62 1017.3
20260503193109 57 292 0.0 0.0 0.06 0.33 0.20 62 1017.3
20260503192107 57 292 0.0 0.0 0.06 0.33 0.20 62 1017.4
20260503191035 56 292 0.0 0.0 0.06 0.33 0.20 63 1017.4
20260503190033 57 270 0.0 0.0 0.04 0.31 0.18 63 1017.7
20260503185030 57 337 0.0 0.0 0.02 0.29 0.16 64 1018.1
20260503183956 57 292 0.0 0.0 0.04 0.26 0.14 64 1018.2
20260503182922 57 315 0.0 0.0 0.04 0.26 0.14 64 1018.2
20260503181921 57 270 0.0 0.0 0.04 0.26 0.14 64 1018.6
20260503180918 57 337 0.0 0.0 0.04 0.26 0.14 64 1018.6
20260503175916 57 292 0.0 0.0 0.04 0.26 0.14 64 1018.6
20260503174913 57 292 0.0 0.0 0.04 0.26 0.14 63 1018.6
20260503173809 57 292 0.0 0.0 0.04 0.26 0.14 63 1018.6
20260503172734 57 337 0.0 0.0 0.04 0.26 0.14 63 1018.3
20260503171700 57 337 0.0 0.0 0.04 0.24 0.12 62 1018.6
20260503170657 57 337 0.0 0.0 0.04 0.24 0.12 63 1019.0
20260503150501 57 315 0.0 0.0 0.04 0.16 0.04 66 1019.4
20260503131406 58 337 0.0 0.0 0.02 0.12 0.13 76 1020.3
20260503130404 58 315 0.0 0.0 0.02 0.12 0.13 76 1020.2
20260503110308 58 292 0.0 0.0 0.04 0.10 0.11 71 1020.1
20260503100225 58 292 0.0 0.0 0.06 0.10 0.11 75 1019.4
20260503090108 59 337 0.0 0.0 0.06 0.06 0.06 79 1020.0
20260503081057 60 225 0.0 0.0 0.00 0.00 0.00 82 1020.1
20260503072047 61 270 0.0 0.0 0.00 0.00 0.00 80 1019.8
20260503071045 62 225 0.0 0.0 0.00 0.00 0.00 80 1019.9